This demonstration page uses our WeatherBlox Daily Observations layout. Learn more.

Hourly Observations for May 10, 2015

Temp ( °F °C ) Dew Point ( °F °C ) Humidity (%) Winds ( mph kmh ) Pressure ( in mb ) Visibility ( mi km ) Precip ( " mm )
12:15 am 00:15 Cloudy 62 16.4 59 15.1 92 92 SSE 17 28 29.74 1007 10 16.0934 0 0
12:35 am 00:35 Cloudy 62 16.5 60 15.3 93 93 SE 18 30 29.74 1007 10 16.0934 0 0
12:55 am 00:55 Mostly Cloudy 61 16.2 59 15 93 93 SSE 15 24 29.74 1007 10 16.0934 0 0
1:15 am 01:15 Mostly Cloudy 62 16.4 59 15.1 92 92 SSE 14 22 29.74 1007 10 16.0934 0 0
1:35 am 01:35 Mostly Cloudy with Light Rain 61 16.3 59 15.1 93 93 SSE 15 24 29.74 1007 10 16.0934 0 0
1:55 am 01:55 Mostly Cloudy 61 16.2 58 14.5 90 90 ESE 20 31 29.68 1005 10 16.0934 0.01 0.254
2:15 am 02:15 Partly Cloudy 60 15.8 58 14.5 92 92 SE 13 20 29.68 1005 10 16.0934 0 0
2:35 am 02:35 Clear 59 15.1 57 14 93 93 SE 15 24 29.68 1005 10 16.0934 0 0
2:55 am 02:55 Clear 58 14.7 56 13.5 93 93 SE 14 22 29.68 1005 10 16.0934 0 0
3:15 am 03:15 Clear 58 14.2 56 13.1 93 93 SSE 12 19 29.68 1005 10 16.0934 0 0
3:35 am 03:35 Clear 56 13.6 55 12.6 94 94 SE 12 19 29.68 1005 10 16.0934 0 0
3:55 am 03:55 Clear 56 13.1 54 12.3 95 95 SSE 10 17 29.65 1004 10 16.0934 0 0
4:15 am 04:15 Clear 55 13 54 12.1 94 94 SSE 10 17 29.65 1004 10 16.0934 0 0
4:35 am 04:35 Clear 56 13.1 54 12.1 94 94 SSE 15 24 29.65 1004 10 16.0934 0 0
4:55 am 04:55 Clear 56 13.1 53 11.8 92 92 SSE 12 19 29.65 1004 10 16.0934 0 0
5:15 am 05:15 Mostly Cloudy 56 13.5 54 12.1 91 91 S 13 20 29.65 1004 10 16.0934 0 0
5:35 am 05:35 Cloudy 57 13.8 55 12.8 94 94 S 16 26 29.65 1004 10 16.0934 0 0
5:55 am 05:55 Cloudy 57 14 56 13.1 94 94 S 20 31 29.65 1004 10 16.0934 0 0
6:15 am 06:15 Mostly Cloudy 57 14 54 12.2 89 89 S 17 28 29.65 1004 10 16.0934 0 0
6:35 am 06:35 Mostly Cloudy 56 13.2 53 11.5 90 90 S 16 26 29.71 1006 10 16.0934 0 0
6:55 am 06:55 Mostly Cloudy 55 13 52 11.3 90 90 S 16 26 29.71 1006 10 16.0934 0 0
7:15 am 07:15 Mostly Cloudy 55 12.9 52 10.9 88 88 SSW 18 30 29.71 1006 10 16.0934 0 0
7:35 am 07:35 Mostly Cloudy 54 12 49 9.5 85 85 SW 22 35 29.74 1007 10 16.0934 0 0
7:55 am 07:55 Cloudy with Mist and Fog 47 8.3 45 7 92 92 SW 17 28 29.8 1009 5 8.0467 0 0
8:15 am 08:15 Cloudy with Mist and Fog 46 7.9 44 6.9 93 93 SW 16 26 29.8 1009 5 8.0467 0 0
8:35 am 08:35 Cloudy 46 8 43 6.2 89 89 SW 16 26 29.8 1009 10 16.0934 0 0
8:55 am 08:55 Cloudy 46 8 43 6 87 87 SW 24 39 29.8 1009 10 16.0934 0 0
9:15 am 09:15 Cloudy 46 8 43 6.1 88 88 WSW 18 30 29.8 1009 10 16.0934 0 0
9:35 am 09:35 Cloudy 46 7.9 42 5.6 86 86 WSW 17 28 29.8 1009 10 16.0934 0 0
9:55 am 09:55 Cloudy 46 7.8 42 5.8 87 87 W 22 35 29.77 1008 10 16.0934 0 0
10:15 am 10:15 Cloudy 47 8.5 43 6.2 86 86 W 16 26 29.77 1008 10 16.0934 0 0
10:35 am 10:35 Cloudy 48 8.9 44 6.5 85 85 W 22 35 29.77 1008 10 16.0934 0 0
10:55 am 10:55 Cloudy 48 8.7 43 6.1 84 84 W 21 33 29.77 1008 10 16.0934 0 0
11:15 am 11:15 Cloudy 48 9 43 6 82 82 WSW 18 30 29.8 1009 10 16.0934 0 0
11:35 am 11:35 Cloudy 49 9.6 43 5.9 78 78 W 20 31 29.8 1009 10 16.0934 0 0
11:55 am 11:55 Cloudy 49 9.7 43 6.1 78 78 W 20 31 29.8 1009 10 16.0934 0 0
12:15 pm 12:15 Cloudy 50 9.8 42 5.7 76 76 W 14 22 29.8 1009 10 16.0934 0 0
12:35 pm 12:35 Cloudy 50 10 42 5.3 73 73 WSW 15 24 29.8 1009 10 16.0934 0 0
12:55 pm 12:55 Cloudy 51 10.3 42 5.3 71 71 W 20 31 29.8 1009 10 16.0934 0 0
1:15 pm 13:15 Cloudy 51 10.3 41 4.9 69 69 W 16 26 29.8 1009 10 16.0934 0 0
1:35 pm 13:35 Cloudy 51 10.7 41 4.9 68 68 W 17 28 29.77 1008 10 16.0934 0 0
1:55 pm 13:55 Cloudy 51 10.8 41 4.9 67 67 W 17 28 29.77 1008 10 16.0934 0 0
2:15 pm 14:15 Cloudy 50 10.1 40 4.3 68 68 W 16 26 29.8 1009 10 16.0934 0 0
2:35 pm 14:35 Cloudy 50 10.1 40 4.2 67 67 W 20 31 29.8 1009 10 16.0934 0 0
2:55 pm 14:55 Cloudy 49 9.7 39 3.7 67 67 W 20 31 29.83 1010 10 16.0934 0 0
3:15 pm 15:15 Cloudy 49 9.5 38 3.5 66 66 W 20 31 29.83 1010 10 16.0934 0 0
3:35 pm 15:35 Cloudy 49 9.7 38 3.3 65 65 W 20 31 29.83 1010 10 16.0934 0 0
3:55 pm 15:55 Cloudy 49 9.4 37 2.9 64 64 W 23 37 29.83 1010 10 16.0934 0 0
4:15 pm 16:15 Cloudy with Nearby Thunderstorms 49 9.7 37 2.7 62 62 W 18 30 29.83 1010 10 16.0934 0 0
4:35 pm 16:35 Cloudy 49 9.5 36 2.3 61 61 W 24 39 29.83 1010 10 16.0934 0 0
4:55 pm 16:55 Cloudy 49 9.3 37 2.5 63 63 W 20 31 29.83 1010 10 16.0934 0 0
5:15 pm 17:15 Cloudy 49 9.4 35 1.9 60 60 W 22 35 29.83 1010 10 16.0934 0 0
5:35 pm 17:35 Cloudy 49 9.2 36 2 61 61 WNW 20 31 29.85 1011 10 16.0934 0 0
5:55 pm 17:55 Cloudy 47 8.6 35 1.6 62 62 WNW 21 33 29.85 1011 10 16.0934 0 0
6:15 pm 18:15 Cloudy 47 8.5 35 1.5 62 62 W 23 37 29.88 1012 10 16.0934 0 0
6:35 pm 18:35 Partly Cloudy 47 8.1 34 1.1 62 62 WNW 20 31 29.91 1013 10 16.0934 0 0
6:55 pm 18:55 Partly Cloudy 47 8.2 34 1.3 62 62 WNW 18 30 29.91 1013 10 16.0934 0 0
7:15 pm 19:15 Partly Cloudy 46 8 34 1.2 63 63 WNW 18 30 29.91 1013 10 16.0934 0 0
7:35 pm 19:35 Mostly Cloudy 46 7.7 34 1.1 63 63 WNW 18 30 29.91 1013 10 16.0934 0 0
7:55 pm 19:55 Cloudy 46 7.6 33 0.6 62 62 WNW 22 35 29.94 1014 10 16.0934 0 0
8:15 pm 20:15 Cloudy 45 7.1 32 0.2 62 62 WNW 22 35 29.94 1014 10 16.0934 0 0
8:35 pm 20:35 Partly Cloudy 44 6.5 32 0.1 64 64 WNW 23 37 29.94 1014 10 16.0934 0 0
8:55 pm 20:55 Clear 43 6.1 33 0.5 68 68 WNW 17 28 29.94 1014 10 16.0934 0 0
9:15 pm 21:15 Clear 42 5.8 32 0 67 67 WNW 22 35 29.97 1015 10 16.0934 0 0
9:35 pm 21:35 Clear 42 5.6 32 -0.1 67 67 NW 23 37 29.97 1015 10 16.0934 0 0
9:55 pm 21:55 Clear 41 5 31 -0.3 69 69 WNW 22 35 30.03 1017 10 16.0934 0 0
10:15 pm 22:15 Clear 40 4.6 31 -0.6 69 69 WNW 22 35 30.03 1017 10 16.0934 0 0
10:35 pm 22:35 Clear 39 4.1 32 -0.2 74 74 WNW 15 24 30.03 1017 10 16.0934 0 0
10:55 pm 22:55 Clear 39 4 31 -0.6 72 72 NW 17 28 30.06 1018 10 16.0934 0 0
11:15 pm 23:15 Clear 39 3.7 31 -0.5 74 74 WNW 17 28 30.06 1018 10 16.0934 0 0
11:35 pm 23:35 Clear 38 3.5 31 -0.8 74 74 WNW 21 33 30.03 1017 10 16.0934 0 0
11:55 pm 23:55 Clear 38 3.3 30 -1.1 73 73 WNW 21 33 30.06 1018 10 16.0934 0 0

Powered by AerisWeather